Location: Kawakawa
(35.3830°S, 174.0670°E)
Time: 17:39:06
(UTC+12:00)

Cosmos 2263 - Pass Details

Date: 15 August 2020
Orbit: 829 x 867 km, 70.9° (Epoch: 25 September)

Event Time Altitude Azimuth Distance (km) Brightness Sun altitude
Rises 19:05:46 0° 343° (NNW) 3,414 7.7 -15.5°
Reaches altitude 10° 19:08:13 10° 344° (NNW) 2,480 6.9 -16.0°
Maximum altitude 19:13:55 81° 70° (ENE) 868 4.1 -17.2°
Drops below altitude 10° 19:19:38 10° 156° (SSE) 2,484 6.4 -18.4°
Enters shadow 19:20:54 - 157° (SSE) 2,969 6.8 -18.6°
